W4SKW Weather Reports


time (UTC)temp
F
wind
direction
speed
knots
gust
knots
rain 1hr
in
rain 24hr
in
rain mn
in
humidity
%
barometer
mb
20260906122904 73 234 0.0 0.0 0.00 0.00 0.00 94 1015.0
20260906122359 73 234 0.0 0.0 0.00 0.00 0.00 94 1014.9
20260906121856 73 248 0.0 0.0 0.00 0.00 0.00 94 1015.0
20260906121352 73 250 0.0 0.0 0.00 0.00 0.00 94 1015.0
20260906120848 72 243 0.0 0.0 0.00 0.00 0.00 95 1014.8
20260906120343 72 243 0.0 0.0 0.00 0.00 0.00 95 1014.8
20260906115839 72 243 0.0 0.0 0.00 0.00 0.00 95 1014.8
20260906115334 72 243 0.0 0.0 0.00 0.00 0.00 94 1014.8
20260906114834 72 243 0.0 0.0 0.00 0.00 0.00 95 1014.7
20260906114329 72 242 0.0 0.0 0.00 0.00 0.00 95 1014.7
20260906113824 72 243 0.0 0.0 0.00 0.00 0.00 95 1014.6
20260906113323 72 243 0.0 0.0 0.00 0.00 0.00 95 1014.6
20260906112818 72 243 0.0 0.0 0.00 0.00 0.00 95 1014.5
20260906112309 72 244 0.0 0.0 0.00 0.00 0.00 95 1014.4
20260906111808 72 245 0.0 0.0 0.00 0.00 0.00 95 1014.6
20260906111302 72 243 0.0 0.0 0.00 0.00 0.00 94 1014.7
20260906110757 72 242 0.0 0.0 0.00 0.00 0.00 94 1014.6
20260906110253 72 241 0.0 0.0 0.00 0.00 0.00 94 1014.5
20260906105752 72 250 0.0 0.0 0.00 0.00 0.00 94 1014.5
20260906105248 72 244 0.0 0.0 0.00 0.00 0.00 94 1014.4
20260906104743 72 244 0.0 0.0 0.00 0.00 0.00 94 1014.3
20260906104242 72 240 0.0 0.0 0.00 0.00 0.00 94 1014.3
20260906103740 72 246 0.0 0.0 0.00 0.00 0.00 94 1014.4
20260906103234 72 246 0.0 0.0 0.00 0.00 0.00 94 1014.4
20260906102729 72 246 0.0 0.0 0.00 0.00 0.00 94 1014.4
20260906102223 72 250 0.0 0.0 0.00 0.00 0.00 94 1014.5
20260906101718 72 251 0.0 0.0 0.00 0.00 0.00 94 1014.4
20260906101213 72 249 0.0 0.0 0.00 0.00 0.00 94 1014.3
20260906100708 72 256 0.0 0.0 0.00 0.00 0.00 94 1014.4
20260906095640 72 244 0.0 0.0 0.00 0.00 0.00 94 1014.5
20260906095135 72 244 0.0 0.0 0.00 0.00 0.00 94 1014.5
20260906094634 72 250 0.0 0.0 0.00 0.00 0.00 94 1014.5
20260906094130 72 250 0.0 0.0 0.00 0.00 0.00 94 1014.6
20260906093626 72 249 0.0 0.0 0.00 0.00 0.00 94 1014.4
20260906093120 72 249 0.0 0.0 0.00 0.00 0.00 94 1014.6
20260906092615 72 246 0.0 0.0 0.00 0.00 0.00 94 1014.6
20260906092110 72 244 0.0 0.0 0.00 0.00 0.00 94 1014.6
20260906091606 72 230 0.0 0.0 0.00 0.00 0.00 94 1014.7
20260906091103 72 240 0.0 0.0 0.00 0.00 0.00 94 1014.9
20260906090557 72 240 0.0 0.0 0.00 0.00 0.00 94 1014.9
20260906090057 72 231 0.0 0.0 0.00 0.00 0.00 94 1014.6
20260906085556 72 231 0.0 0.0 0.00 0.00 0.00 94 1014.6
20260906085051 72 236 0.0 0.0 0.00 0.00 0.00 94 1014.5
20260906084545 72 236 0.0 0.0 0.00 0.00 0.00 94 1014.4
20260906084044 72 242 0.0 0.0 0.00 0.00 0.00 94 1014.4
20260906083540 72 243 0.0 0.0 0.00 0.00 0.00 94 1014.3
20260906083039 72 259 0.0 0.0 0.00 0.00 0.00 94 1014.2
20260906082535 72 243 0.0 0.0 0.00 0.00 0.00 94 1014.4
20260906082031 72 196 0.0 0.0 0.00 0.00 0.00 94 1014.3
20260906081526 72 219 0.0 0.0 0.00 0.00 0.00 94 1014.4
20260906081021 72 249 0.0 0.0 0.00 0.00 0.00 94 1014.4
20260906080512 71 80 0.0 0.9 0.00 0.00 0.00 95 1014.6
20260906080008 71 248 0.0 0.0 0.00 0.00 0.00 95 1014.4
20260906075502 71 248 0.0 0.0 0.00 0.00 0.00 95 1014.2
20260906074956 71 248 0.0 0.0 0.00 0.00 0.00 95 1014.0
20260906074451 71 248 0.0 0.0 0.00 0.00 0.00 95 1013.9
20260906073949 71 249 0.0 0.0 0.00 0.00 0.00 95 1014.0
20260906073444 71 249 0.0 0.0 0.00 0.00 0.00 95 1013.9
20260906072941 71 251 0.0 0.0 0.00 0.00 0.00 95 1013.9
20260906072436 71 257 0.0 0.0 0.00 0.00 0.00 95 1014.0
20260906071932 71 241 0.0 0.0 0.00 0.00 0.00 95 1014.1
20260906071428 71 241 0.0 0.0 0.00 0.00 0.00 95 1014.3
20260906070924 71 248 0.0 0.0 0.00 0.00 0.00 95 1014.3
20260906070419 71 248 0.0 0.0 0.00 0.00 0.00 95 1014.2
20260906065915 71 248 0.0 0.0 0.00 0.00 0.00 95 1014.4
20260906065409 71 248 0.0 0.0 0.00 0.00 0.00 95 1014.5
20260906064904 71 248 0.0 0.0 0.00 0.00 0.00 95 1014.5
20260906064401 71 248 0.0 0.0 0.00 0.00 0.00 95 1014.6
20260906063900 71 234 0.0 0.0 0.00 0.00 0.00 95 1014.6
20260906063344 71 237 0.0 0.0 0.00 0.00 0.00 95 1014.5
20260906062839 71 237 0.0 0.0 0.00 0.00 0.00 95 1014.5
20260906062338 71 237 0.0 0.0 0.00 0.00 0.00 95 1014.5
20260906061834 71 230 0.0 0.0 0.00 0.00 0.00 95 1014.4
20260906061330 71 223 0.0 0.0 0.00 0.00 0.00 95 1014.5
20260906060825 71 240 0.0 0.0 0.00 0.00 0.00 94 1014.4
20260906060323 71 245 0.0 0.0 0.00 0.00 0.00 94 1014.4
20260906055818 71 241 0.0 0.0 0.00 0.00 0.00 94 1014.4
20260906055314 71 241 0.0 0.0 0.00 0.00 0.00 94 1014.3
20260906054809 71 241 0.0 0.0 0.00 0.00 0.00 94 1014.6
20260906054303 71 240 0.0 0.0 0.00 0.00 0.00 94 1014.5
20260906053800 72 243 0.0 0.0 0.00 0.00 0.00 94 1014.3
20260906052925 72 246 0.0 0.0 0.00 0.00 0.00 94 1014.6
20260906052421 72 246 0.0 0.0 0.00 0.00 0.00 94 1014.6
20260906051918 72 246 0.0 0.0 0.00 0.00 0.00 94 1014.9
20260906051418 72 241 0.0 0.0 0.00 0.00 0.00 94 1015.0
20260906050914 72 241 0.0 0.0 0.00 0.00 0.00 94 1015.1
20260906050408 72 248 0.0 0.0 0.00 0.00 0.00 94 1014.9
20260906045908 72 248 0.0 0.0 0.00 0.00 0.00 94 1014.9
20260906045406 72 245 0.0 0.0 0.00 0.00 0.00 93 1014.9
20260906044903 72 245 0.0 0.0 0.00 0.00 0.00 93 1015.1
20260906044402 72 245 0.0 0.0 0.00 0.00 0.00 93 1014.8
20260906043858 72 245 0.0 0.0 0.00 0.00 0.00 93 1014.8
20260906042832 73 246 0.0 0.0 0.00 0.00 0.00 93 1015.2
20260906042331 73 246 0.0 0.0 0.00 0.00 0.00 93 1015.2
20260906041826 73 246 0.0 0.0 0.00 0.00 0.00 93 1015.3
20260906041322 73 246 0.0 0.0 0.00 0.00 0.00 93 1015.3
20260906040817 73 252 0.0 0.0 0.00 0.00 0.00 93 1015.3
20260906040312 73 243 0.0 0.0 0.00 0.00 0.00 93 1015.2
20260906035808 73 243 0.0 0.0 0.00 0.00 0.00 92 1015.1
20260906035306 73 243 0.0 0.0 0.00 0.00 0.00 92 1015.2
20260906034758 73 243 0.0 0.0 0.00 0.00 0.00 92 1015.4
20260906034257 73 243 0.0 0.0 0.00 0.00 0.00 92 1015.3
20260906033421 74 254 0.0 0.0 0.00 0.00 0.00 92 1015.2
20260906032917 74 254 0.0 0.0 0.00 0.00 0.00 92 1015.2
20260906032413 74 244 0.0 0.0 0.00 0.00 0.00 92 1015.3
20260906031907 74 242 0.0 0.0 0.00 0.00 0.00 92 1015.4
20260906031403 74 237 0.0 0.0 0.00 0.00 0.00 92 1015.1
20260906030858 74 238 0.0 0.0 0.00 0.00 0.00 91 1015.0
20260906030352 74 252 0.0 0.0 0.00 0.00 0.00 91 1015.0
20260906025846 74 255 0.0 0.0 0.00 0.00 0.00 91 1014.9
20260906025341 74 222 0.0 0.0 0.00 0.00 0.00 91 1015.0
20260906024840 74 248 0.0 0.0 0.00 0.00 0.00 91 1015.0
20260906024339 75 254 0.0 0.0 0.00 0.00 0.00 91 1015.0
20260906023330 75 237 0.0 0.0 0.00 0.00 0.00 90 1015.2
20260906022826 75 237 0.0 0.0 0.00 0.00 0.00 90 1015.2
20260906022321 75 244 0.0 0.0 0.00 0.00 0.00 89 1015.2
20260906021816 75 244 0.0 0.0 0.00 0.00 0.00 89 1014.8
20260906021315 75 244 0.0 0.0 0.00 0.00 0.00 89 1014.8
20260906020810 76 238 0.0 0.0 0.00 0.00 0.00 88 1015.0
20260906020309 76 238 0.0 0.0 0.00 0.00 0.00 88 1015.0
20260906015804 76 238 0.0 0.0 0.00 0.00 0.00 87 1015.1
20260906015305 76 238 0.0 0.0 0.00 0.00 0.00 87 1015.0
20260906014757 77 224 0.0 0.0 0.00 0.00 0.00 87 1015.0
20260906014253 76 222 0.0 0.0 0.00 0.00 0.00 87 1014.9
20260906013232 77 214 0.0 0.0 0.00 0.00 0.00 86 1014.6
20260906012727 77 214 0.0 0.0 0.00 0.00 0.00 86 1014.6
20260906012222 77 182 0.0 0.0 0.00 0.00 0.00 87 1014.5
20260906011717 77 233 0.0 0.0 0.00 0.00 0.00 87 1013.9
20260906011212 77 233 0.0 0.0 0.00 0.00 0.00 87 1013.9
20260906010707 77 233 0.0 0.0 0.00 0.00 0.00 87 1013.6
20260906010204 77 242 0.0 0.0 0.00 0.00 0.00 87 1013.6
20260906005703 77 242 0.0 0.0 0.00 0.00 0.00 86 1013.4
20260906005202 77 232 0.0 0.0 0.00 0.00 0.00 86 1013.5
20260906004701 78 232 0.0 0.0 0.00 0.00 0.00 86 1013.5
20260906004156 78 232 0.0 0.0 0.00 0.00 0.00 85 1013.2
20260906003617 79 221 0.0 0.0 0.00 0.00 0.00 85 1013.5
20260906003112 79 221 0.0 0.0 0.00 0.00 0.00 85 1013.5
20260906002607 79 227 0.0 0.0 0.00 0.00 0.00 85 1013.4
20260906002101 79 227 0.0 0.0 0.00 0.00 0.00 85 1013.4
20260906001556 79 215 0.0 0.0 0.00 0.00 0.00 85 1013.4
20260906001051 80 227 0.0 0.0 0.00 0.00 0.00 83 1013.7
20260906000548 80 227 0.0 0.0 0.00 0.00 0.00 83 1013.7
20260906000042 80 218 0.0 0.0 0.00 0.00 0.00 83 1013.9
20260905235536 80 211 0.0 0.0 0.00 0.00 0.00 82 1013.8
20260905235031 81 251 0.0 0.0 0.00 0.00 0.00 81 1013.7
20260905234526 81 243 0.0 0.0 0.00 0.00 0.00 80 1014.0
20260905234021 81 240 0.0 0.0 0.00 0.00 0.00 80 1013.9
20260905233516 82 255 0.0 0.9 0.00 0.00 0.00 77 1013.9
20260905233016 83 237 0.0 0.0 0.00 0.00 0.00 76 1013.8
20260905232511 83 239 0.0 0.0 0.00 0.00 0.00 75 1013.5
20260905232007 83 237 0.0 0.0 0.00 0.00 0.00 76 1013.5
20260905231502 84 210 0.0 0.0 0.00 0.00 0.00 75 1013.5
20260905230958 84 221 0.0 0.0 0.00 0.00 0.00 73 1013.4
20260905230457 85 216 0.0 0.0 0.00 0.00 0.00 71 1013.1
20260905225955 85 216 0.0 0.0 0.00 0.00 0.00 71 1013.1
20260905225450 86 178 0.0 0.0 0.00 0.00 0.00 71 1013.3
20260905224945 86 228 0.0 0.0 0.00 0.00 0.00 71 1013.3
20260905224441 87 274 0.0 0.9 0.00 0.00 0.00 68 1013.0
20260905223939 86 198 0.0 0.0 0.00 0.00 0.00 70 1013.0
20260905223438 86 198 0.0 0.0 0.00 0.00 0.00 70 1013.0
20260905222933 86 134 0.9 1.7 0.00 0.00 0.00 68 1013.1
20260905222432 86 116 0.0 0.0 0.00 0.00 0.00 70 1013.3
20260905221928 87 191 0.0 0.0 0.00 0.00 0.00 68 1012.8
20260905221424 85 194 0.0 0.0 0.00 0.00 0.00 70 1012.7
20260905220921 85 193 0.0 0.0 0.00 0.00 0.00 71 1013.4
20260905220416 85 193 0.0 0.0 0.00 0.00 0.00 71 1013.4
20260905215915 86 180 0.0 0.0 0.00 0.00 0.00 70 1013.5
20260905215411 86 209 0.0 0.0 0.00 0.00 0.00 68 1013.6
20260905214907 86 181 0.0 0.0 0.00 0.00 0.00 66 1013.6
20260905214403 87 245 0.0 0.0 0.00 0.00 0.00 64 1013.9
20260905213857 89 259 0.0 0.0 0.00 0.00 0.00 60 1013.7
20260905213354 89 259 0.0 0.0 0.00 0.00 0.00 60 1013.7
20260905212854 91 299 1.7 3.5 0.00 0.00 0.00 58 1013.6
20260905212348 93 201 0.0 0.0 0.00 0.00 0.00 58 1013.6
20260905211842 95 149 2.6 2.6 0.00 0.00 0.00 54 1013.4
20260905211337 97 247 0.0 0.0 0.00 0.00 0.00 57 1013.2
20260905210833 96 216 0.0 1.7 0.00 0.00 0.00 53 1013.1
20260905210328 95 209 0.0 0.0 0.00 0.00 0.00 57 1013.2
20260905205827 94 230 0.0 0.0 0.00 0.00 0.00 57 1013.4
20260905205322 94 195 0.0 0.0 0.00 0.00 0.00 62 1013.0
20260905204820 94 174 0.0 0.0 0.00 0.00 0.00 60 1013.1
20260905204317 95 163 0.9 0.9 0.00 0.00 0.00 60 1012.9
20260905203816 92 284 0.0 0.0 0.00 0.00 0.00 68 1013.2
20260905203312 91 236 0.0 0.0 0.00 0.00 0.00 65 1013.1
20260905202807 92 259 0.0 0.0 0.00 0.00 0.00 60 1013.2
20260905202301 92 227 0.0 0.0 0.00 0.00 0.00 59 1013.0
20260905201757 92 214 0.0 0.0 0.00 0.00 0.00 59 1013.1
20260905201252 96 212 0.0 0.0 0.00 0.00 0.00 50 1013.2
20260905200747 96 212 0.0 0.0 0.00 0.00 0.00 50 1013.2
20260905200243 98 225 0.0 0.0 0.00 0.00 0.00 47 1013.2
20260905195741 99 248 0.0 0.0 0.00 0.00 0.00 53 1013.1
20260905195236 100 264 0.0 0.0 0.00 0.00 0.00 45 1013.1
20260905194732 100 147 0.0 0.0 0.00 0.00 0.00 47 1013.3
20260905194231 98 202 0.0 0.9 0.00 0.00 0.00 46 1013.5
20260905193731 99 264 0.0 0.0 0.00 0.00 0.00 51 1013.5
20260905193226 98 239 0.0 0.0 0.00 0.00 0.00 45 1013.4
20260905192721 99 229 0.0 0.0 0.00 0.00 0.00 49 1013.6
20260905192149 99 252 0.0 0.0 0.00 0.00 0.00 45 1013.7
20260905191649 99 252 0.0 0.0 0.00 0.00 0.00 45 1013.7
20260905191146 97 207 1.7 2.6 0.00 0.00 0.00 46 1014.0
20260905190644 95 220 0.0 0.0 0.00 0.00 0.00 50 1014.1
20260905190139 98 247 0.0 0.0 0.00 0.00 0.00 51 1014.1
20260905185638 98 247 0.0 0.0 0.00 0.00 0.00 51 1014.1
20260905185138 97 254 0.0 0.0 0.00 0.00 0.00 48 1014.0
20260905184632 98 208 0.0 0.0 0.00 0.00 0.00 55 1014.0
20260905184131 96 242 1.7 1.7 0.00 0.00 0.00 50 1014.1
20260905183630 96 196 0.0 0.9 0.00 0.00 0.00 53 1014.0
20260905183126 97 237 0.0 0.0 0.00 0.00 0.00 47 1014.0
20260905182625 98 250 0.0 0.0 0.00 0.00 0.00 48 1014.3
20260905182125 98 238 0.0 0.0 0.00 0.00 0.00 45 1014.6
20260905181620 97 267 0.0 0.0 0.00 0.00 0.00 48 1014.4
20260905181119 97 257 0.0 0.0 0.00 0.00 0.00 51 1014.6
20260905180614 96 280 0.0 0.0 0.00 0.00 0.00 54 1014.7
20260905180110 96 280 0.0 0.0 0.00 0.00 0.00 54 1014.7
20260905175609 95 238 0.0 0.0 0.00 0.00 0.00 61 1014.8
20260905175104 96 53 0.0 0.0 0.00 0.00 0.00 57 1014.9
20260905174600 95 217 0.0 0.0 0.00 0.00 0.00 59 1014.9
20260905174055 95 193 0.0 0.0 0.00 0.00 0.00 51 1014.8
20260905173552 95 167 0.0 0.0 0.00 0.00 0.00 57 1015.2
20260905173047 95 167 0.0 0.0 0.00 0.00 0.00 57 1015.2
20260905172545 95 167 0.0 0.0 0.00 0.00 0.00 57 1015.2
20260905172040 94 352 0.0 0.9 0.00 0.00 0.00 56 1015.2
20260905171537 94 207 0.0 0.0 0.00 0.00 0.00 61 1015.3
20260905171033 94 231 1.7 1.7 0.00 0.00 0.00 59 1015.2
20260905170529 93 249 0.0 0.0 0.00 0.00 0.00 62 1015.3
20260905170024 93 197 0.0 0.0 0.00 0.00 0.00 66 1015.3
20260905165518 94 254 0.0 0.0 0.00 0.00 0.00 63 1015.4
20260905165014 93 306 0.0 0.0 0.00 0.00 0.00 64 1015.5
20260905164508 93 215 0.0 0.0 0.00 0.00 0.00 66 1015.7
20260905164003 93 215 0.0 0.0 0.00 0.00 0.00 66 1015.7
20260905163459 93 216 0.0 0.0 0.00 0.00 0.00 67 1015.9
20260905162955 93 216 0.0 0.0 0.00 0.00 0.00 67 1015.9
20260905162450 92 245 0.0 0.0 0.00 0.00 0.00 69 1015.9
20260905161944 92 87 0.0 0.0 0.00 0.00 0.00 70 1015.9
20260905161438 90 219 0.0 0.0 0.00 0.00 0.00 73 1016.0
20260905160936 90 219 0.0 0.0 0.00 0.00 0.00 73 1016.0
20260905160431 91 202 0.0 0.0 0.00 0.00 0.00 72 1016.1
20260905155930 91 293 0.0 0.0 0.00 0.00 0.00 67 1016.0
20260905155425 90 275 0.0 0.0 0.00 0.00 0.00 69 1016.3
20260905154923 88 226 0.0 0.0 0.00 0.00 0.00 75 1016.1
20260905154419 87 231 0.0 0.0 0.00 0.00 0.00 75 1016.2
20260905153915 87 231 0.0 0.0 0.00 0.00 0.00 75 1016.2
20260905153411 86 211 0.0 0.0 0.00 0.00 0.00 77 1016.4
20260905152910 86 220 0.0 0.0 0.00 0.00 0.00 76 1016.5
20260905152409 85 224 0.0 0.0 0.00 0.00 0.00 79 1016.6
20260905151905 86 204 0.0 0.0 0.00 0.00 0.00 81 1016.6
20260905151400 86 212 0.0 0.0 0.00 0.00 0.00 82 1016.4
20260905150855 84 231 0.0 0.0 0.00 0.00 0.00 80 1016.5
20260905150355 83 243 0.0 0.0 0.00 0.00 0.00 80 1016.7
20260905145852 84 203 0.0 0.0 0.00 0.00 0.00 83 1016.6
20260905145352 84 205 0.0 0.0 0.00 0.00 0.00 79 1016.7
20260905144846 83 256 0.0 0.0 0.00 0.00 0.00 83 1016.7
20260905144342 83 224 0.0 0.0 0.00 0.00 0.00 84 1016.5
20260905143840 83 224 0.0 0.0 0.00 0.00 0.00 83 1016.6
20260905143334 82 232 0.0 0.0 0.00 0.00 0.00 84 1016.7
20260905142834 82 236 0.0 0.0 0.00 0.00 0.00 86 1016.7
20260905142332 82 228 0.0 0.0 0.00 0.00 0.00 84 1016.8
20260905141829 81 224 0.0 0.0 0.00 0.00 0.00 86 1016.8
20260905141324 81 227 0.0 0.0 0.00 0.00 0.00 86 1016.9
20260905140820 80 204 0.0 0.0 0.00 0.00 0.00 87 1016.9
20260905140319 80 228 0.0 0.0 0.00 0.00 0.00 86 1016.8
20260905135818 79 229 0.0 0.0 0.00 0.00 0.00 88 1016.7
20260905135314 79 209 0.0 0.0 0.00 0.00 0.00 87 1017.0
20260905134809 79 208 0.0 0.0 0.00 0.00 0.00 87 1017.1
20260905134303 78 231 0.0 0.0 0.00 0.00 0.00 88 1017.1
20260905133803 77 223 0.0 0.0 0.00 0.00 0.00 93 1017.0
20260905133258 77 223 0.0 0.0 0.00 0.00 0.00 93 1017.0
20260905132757 77 227 0.0 0.0 0.00 0.00 0.00 93 1017.4
20260905132253 76 227 0.0 0.0 0.00 0.00 0.00 93 1017.1
20260905131747 75 231 0.0 0.0 0.00 0.00 0.00 94 1017.1
20260905131237 75 232 0.0 0.0 0.00 0.00 0.00 95 1017.3
20260905130732 75 232 0.0 0.0 0.00 0.00 0.00 95 1017.0
20260905130231 74 232 0.0 0.0 0.00 0.00 0.00 95 1017.3
20260905125727 74 232 0.0 0.0 0.00 0.00 0.00 95 1017.3
20260905125222 74 232 0.0 0.0 0.00 0.00 0.00 96 1017.3
20260905124718 73 232 0.0 0.0 0.00 0.00 0.00 96 1017.1
20260905124214 73 232 0.0 0.0 0.00 0.00 0.00 96 1017.3
20260905123714 73 230 0.0 0.0 0.00 0.00 0.00 96 1017.3
20260905123212 73 242 0.0 0.0 0.00 0.00 0.00 96 1017.1